Location: Borealis Mine
(38.3824°N, 118.7610°W)
Time: 03:16:15
(UTC+00:00)

Envisat - Visible Passes

Search period start: 21 January 2022 00:00
Search period end: 31 January 2022 00:00
Orbit: 764 x 766 km, 98.2° (Epoch: 20 January)

Date Brightness Start Highest point End Pass type
(mag) Time Alt. Az. Time Alt. Az. Time Alt. Az.
21 Jan 3.5 12:29:58 10° NNE 12:34:58 56° E 12:39:56 10° S visible
21 Jan 4.4 14:10:20 10° NNW 14:13:30 17° WNW 14:16:39 10° WSW visible
22 Jan 5.1 11:53:50 10° NE 11:57:56 24° E 12:01:59 10° SSE visible
22 Jan 3.5 13:32:22 10° N 13:36:59 36° WNW 13:41:34 10° SW visible
23 Jan 2.8 12:55:10 10° N 13:00:16 82° WNW 13:05:20 10° SSW visible
24 Jan 4.0 12:18:31 10° NNE 12:23:21 43° E 12:28:09 10° S visible
24 Jan 4.1 13:58:17 10° NNW 14:02:02 21° WNW 14:05:47 10° WSW visible
25 Jan 5.4 11:42:42 10° NE 11:46:14 19° E 11:49:46 10° SE visible
25 Jan 3.2 13:20:37 10° N 13:25:27 46° WNW 13:30:17 10° SW visible
26 Jan 3.0 12:43:34 10° NNE 12:48:40 78° ESE 12:53:45 10° S visible
26 Jan 4.7 14:25:00 10° NW 14:26:59 12° WNW 14:28:59 10° W visible
27 Jan 4.5 12:07:07 10° NNE 12:11:42 33° E 12:16:15 10° SSE visible
27 Jan 3.9 13:46:21 10° NNW 13:50:33 27° WNW 13:54:44 10° WSW visible
28 Jan 5.7 11:31:48 10° ENE 11:34:32 14° E 11:37:16 10° SE visible
28 Jan 2.9 13:08:54 10° N 13:13:54 59° WNW 13:18:53 10° SSW visible
29 Jan 3.4 12:32:02 10° NNE 12:37:04 60° E 12:42:04 10° S visible
29 Jan 4.5 14:12:35 10° NNW 14:15:33 16° WNW 14:18:30 10° W visible
30 Jan 4.9 11:55:49 10° NE 12:00:02 26° E 12:04:14 10° SSE visible
30 Jan 3.6 13:34:30 10° N 13:39:02 34° WNW 13:43:34 10° SW visible
